Weather History for KBFM - March, 2012

Change the Weather History Date:

Monday, March 26, 2012

  Actual Average Record
Temperature  
Mean Temperature 70 °F -  
Max Temperature 82 °F 68 °F 82 °F (2011)
Min Temperature 57 °F 50 °F 33 °F (2014)
Cooling Degree Days 4    
Growing Degree Days 20 (Base 50)    
Moisture  
Dew Point 57 °F    
Average Humidity 67    
Maximum Humidity 93    
Minimum Humidity 38    
Precipitation  
Precipitation 0.00 in - - ()
Sea Level Pressure  
Sea Level Pressure 30.03 in    
Wind  
Wind Speed 3 mph (North)    
Max Wind Speed 9 mph    
Max Gust Speed -    
Visibility 10 miles    
Events      
Averages and records for this station are not official NWS values.
T = Trace of Precipitation, MM = Missing Value Source: NWS Daily Summary

Daily Weather History Graph

Daily Weather History Graph

Search for Another Location

Airport or City:

Trip Planner

Search our weather history database for the weather conditions in past years. The results will help you decide how hot, cold, wet, or windy it might be!

Date:

Astronomy

Mar. 26, 2012 Rise Set
Actual Time 6:48 AM CDT 7:07 PM CDT
Civil Twilight 6:23 AM CDT 7:31 PM CDT
Nautical Twilight 5:55 AM CDT 8:00 PM CDT
Astronomical Twilight 5:27 AM CDT 8:28 PM CDT
Moon 8:55 AM CDT (3/26) 10:58 PM CDT (3/26)
Length of Visible Light 13h 08m
Length of Day
12h 19m
Waxing Crescent, 15% of the Moon is Illuminated
Mar 26
Waxing Crescent
Mar 30
First Quarter
Apr 6
Full
Apr 13
Last Quarter
Apr 21
New

Hourly Weather History & Observations

Time (CDT) Temp. Heat Index Dew Point Humidity Pressure Visibility Wind Dir Wind Speed Gust Speed Precip Events Conditions
12:53 AM 61.0 °F - 55.9 °F 83% 29.99 in 10.0 mi Calm Calm - N/A   Clear
1:53 AM 60.1 °F - 55.9 °F 86% 29.99 in 10.0 mi Calm Calm - N/A   Clear
2:53 AM 60.1 °F - 57.9 °F 93% 29.99 in 10.0 mi Calm Calm - N/A   Clear
3:53 AM 59.0 °F - 57.0 °F 93% 29.99 in 10.0 mi Calm Calm - N/A   Clear
4:53 AM 57.9 °F - 55.0 °F 90% 29.99 in 10.0 mi NW 4.6 mph - N/A   Clear
5:53 AM 57.9 °F - 54.0 °F 87% 30.01 in 10.0 mi NNW 4.6 mph - N/A   Clear
6:53 AM 57.9 °F - 54.0 °F 87% 30.04 in 10.0 mi NNW 4.6 mph - N/A   Clear
7:53 AM 64.0 °F - 57.0 °F 78% 30.06 in 10.0 mi North 4.6 mph - N/A   Clear
8:53 AM 68.0 °F - 57.9 °F 70% 30.07 in 10.0 mi North 4.6 mph - N/A   Clear
9:53 AM 72.0 °F - 57.0 °F 59% 30.08 in 10.0 mi NNE 5.8 mph - N/A   Clear
10:53 AM 75.0 °F - 55.9 °F 51% 30.09 in 10.0 mi NNE 4.6 mph - N/A   Clear
11:53 AM 77.0 °F - 54.0 °F 45% 30.08 in 10.0 mi ENE 3.5 mph - N/A   Clear
12:53 PM 79.0 °F - 54.0 °F 42% 30.06 in 10.0 mi SE 5.8 mph - N/A   Clear
1:53 PM 81.0 °F 80.8 °F 55.9 °F 42% 30.03 in 10.0 mi ESE 5.8 mph - N/A   Clear
2:53 PM 81.0 °F 80.7 °F 55.0 °F 41% 30.00 in 10.0 mi Variable 4.6 mph - N/A   Partly Cloudy
3:53 PM 82.9 °F 82.0 °F 55.0 °F 38% 29.99 in 10.0 mi ENE 9.2 mph - N/A   Partly Cloudy
4:53 PM 82.0 °F 81.7 °F 57.0 °F 42% 29.99 in 10.0 mi ENE 8.1 mph - N/A   Partly Cloudy
5:53 PM 80.1 °F 80.4 °F 57.0 °F 45% 29.99 in 10.0 mi NE 5.8 mph - N/A   Partly Cloudy
6:53 PM 75.9 °F - 57.0 °F 52% 30.00 in 10.0 mi West 4.6 mph - N/A   Clear
7:53 PM 72.0 °F - 57.9 °F 61% 30.01 in 10.0 mi WSW 5.8 mph - N/A   Clear
8:53 PM 70.0 °F - 61.0 °F 73% 30.04 in 10.0 mi WSW 4.6 mph - N/A   Clear
9:53 PM 68.0 °F - 61.0 °F 78% 30.05 in 10.0 mi Calm Calm - N/A   Clear
10:53 PM 66.0 °F - 61.0 °F 84% 30.06 in 10.0 mi NW 5.8 mph - N/A   Clear
11:53 PM 63.0 °F - 61.0 °F 93% 30.06 in 10.0 mi WNW 3.5 mph - N/A   Clear